• MPC Preparation (Info)

  • MPEC 2010-S65 : 2010 SG15

    The following Minor Planet Electronic Circular may be linked-to from your own Web pages, but must not otherwise be redistributed electronically.

    A form allowing access to any MPEC is at the bottom of this page.


    Read MPEC 2010-S64 Read MPEC 2010-S66


    M.P.E.C. 2010-S65                                Issued 2010 Sept. 30, 14:29 UT
    
         The Minor Planet Electronic Circulars contain information on unusual
             minor planets and routine data on comets.  They are published
       on behalf of Commission 20 of the International Astronomical Union by the
              Minor Planet Center, Smithsonian Astrophysical Observatory,
                              Cambridge, MA 02138, U.S.A.
    
                 Prepared using the Tamkin Foundation Computer Network
    
                                  MPC@CFA.HARVARD.EDU
           URL https://www.minorplanetcenter.org/iau/mpc.html  ISSN 1523-6714
    
                                       2010 SG15
    
    Observations:
         K10S15G* C2010 09 29.26784 23 07 36.22 -05 52 03.3          21.8 V ES065G96
         K10S15G  C2010 09 29.27308 23 07 37.56 -05 51 57.7          20.9 V ES065G96
         K10S15G  C2010 09 29.27831 23 07 38.78 -05 51 51.8          21.1 V ES065G96
         K10S15G  C2010 09 29.28350 23 07 40.04 -05 51 46.2          21.1 V ES065G96
         K10S15G  C2010 09 29.31978 23 07 48.82 -05 51 06.6          21.1 V ES065G96
         K10S15G  C2010 09 29.32036 23 07 49.00 -05 51 05.2          20.5 V ES065G96
         K10S15G  C2010 09 29.32094 23 07 49.08 -05 51 05.2          21.1 V ES065G96
         K10S15G  C2010 09 29.32150 23 07 49.26 -05 51 04.5          21.0 V ES065G96
         K10S15G  C2010 09 29.36785 23 08 00.70 -05 50 12.6          22.2 V ES065G96
         K10S15G  C2010 09 29.36920 23 08 00.97 -05 50 11.9          21.1 V ES065G96
         K10S15G  C2010 09 29.37052 23 08 01.32 -05 50 10.6          22.1 V ES065G96
         K10S15G KC2010 09 30.17672023 11 47.57 -05 35 22.6          20.8 V ES065H21
         K10S15G KC2010 09 30.18938823 11 50.79 -05 35 08.0          20.8 V ES065H21
         K10S15G KC2010 09 30.20196223 11 53.99 -05 34 53.0          20.7 V ES065H21
         K10S15G  C2010 09 30.24044 23 12 05.54 -05 34 01.6          20.9 V ES065G96
         K10S15G  C2010 09 30.24177 23 12 05.94 -05 34 00.0          20.6 V ES065G96
         K10S15G  C2010 09 30.24304 23 12 06.15 -05 33 59.3          20.5 V ES065G96
         K10S15G  C2010 09 30.24437 23 12 06.51 -05 33 56.9          21.5 V ES065G96
    
    Observer details:
    G96 Mt. Lemmon Survey.  Observer A. R. Gibbs.  Measurers J. D. Ahern,
        E. C. Beshore, A. Boattini, G. J. Garradd, A. R. Gibbs, A. D. Grauer,
        R. E. Hill, R. A. Kowalski, S. M. Larson, R. H. McNaught.  1.5-m reflector
        + CCD.
    H21 Astronomical Research Observatory, Westfield.  Observer R. Holmes.
        Measurer S. Foglia.  0.81-m f/4.0 astrograph + CCD.
    
    Orbital elements:
    2010 SG15                                                Earth MOID = 0.0873 AU
    Epoch 2010 July 23.0 TT = JDT 2455400.5                 MPC
    M 331.90849              (2000.0)            P               Q
    n   0.32828189     Peri.  199.70549     +0.92621347     -0.37699899
    a   2.0811566      Node   182.44268     +0.34777845     +0.85504558
    e   0.4792164      Incl.    0.81870     +0.14552923     +0.35604608
    P   3.00           H   24.8           G   0.15           U   9
    Residuals in seconds of arc
    100929 G96  0.6-  0.1-    100929 G96  0.4-  0.0     100930 H21  0.0   0.2-
    100929 G96  0.5+  0.2-    100929 G96  0.2+  0.0     100930 H21  0.1+  0.4+
    100929 G96  0.0   0.1+    100929 G96  0.5+  0.5+    100930 G96  0.0   0.1+
    100929 G96  0.1+  0.0     100929 G96  0.5-  0.3-    100930 G96  1.0+  0.2+
    100929 G96  0.1-  0.2-    100929 G96  0.2-  0.5-    100930 G96  0.7-  0.6-
    100929 G96  0.5+  0.6+    100930 H21  0.0   0.3-    100930 G96  0.3-  0.3+
    
    Ephemeris:
    2010 SG15                a,e,i = 2.08, 0.48, 1                   q = 1.0838
    Date    TT    R. A. (2000) Decl.     Delta      r     Elong.  Phase     V
    2010 10 01    23 15.72   -05 18.4    0.103    1.098   160.2    18.0    21.0
    2010 10 11    00 14.39   -01 00.3    0.0899   1.086   165.3    13.5    20.5
    2010 10 21    01 25.33   +04 34.7    0.0900   1.085   172.8     6.6    20.2
    2010 10 31    02 28.68   +09 27.2    0.104    1.096   175.0     4.5    20.5
    2010 11 10    03 12.96   +12 42.1    0.129    1.119   174.6     4.8    21.0
    2010 11 20    03 40.84   +14 46.5    0.164    1.152   175.2     4.1    21.6
    
    Timothy B. Spahr             (C) Copyright 2010 MPC           M.P.E.C. 2010-S65
    

    Read MPEC 2010-S64 Read MPEC 2010-S66


    MPEC number:

    Enter an MPEC number in one of the following forms:

    • 1997-B01 (the full form)
    • J97B01 (the packed version of the full form)
    • B01 (the abbreviated form)